Location: Newark
(54.2500°N, 9.1833°E)
Time: 02:53:50
(UTC+00:00)

Vanguard 2 Rocket - Pass Details

Date: 19 December 2019
Orbit: 554 x 3326 km, 32.9° (Epoch: 23 January)

Event Time Altitude Azimuth Distance (km) Brightness Sun altitude
Rises 17:53:11 0° 256° (WSW) 7,013 12.9 -23.5°
Reaches altitude 10° 17:59:23 10° 246° (WSW) 5,650 11.9 -24.4°
Maximum altitude 18:10:58 25° 200° (SSW) 3,605 10.1 -26.1°
Drops below altitude 10° 18:19:05 10° 151° (SSE) 3,841 9.8 -27.3°
Enters shadow 18:19:20 - 149° (SSE) 3,877 9.8 -27.3°
